This demonstration page uses our WeatherBlox Daily Observations layout. Learn more.

Left ArrowRight Arrow

39.51506, -84.39828

Hourly Observations for June 4, 2018

Temp ( °F °C ) Dew Point ( °F °C ) Humidity (%) Winds ( mph kmh ) Pressure ( in mb ) Visibility ( mi km ) Precip ( " mm )
12:15 am 00:15 Clear 61 16.2 53 11.9 76 76 W 7 11 29.88 1012 10 16 N/A
12:35 am 00:35 Clear 60 15.6 54 12.3 81 81 W 6 9 29.88 1012 10 16 N/A
12:55 am 00:55 Clear 61 16.3 54 12 76 76 NNW 3 6 29.91 1013 10 16 N/A
1:15 am 01:15 Clear 60 15.8 53 11.9 78 78 N N/A 29.91 1013 10 16 N/A
1:35 am 01:35 Clear 59 15 55 12.5 85 85 WNW 3 6 29.91 1013 10 16 N/A
1:55 am 01:55 Clear 59 14.8 54 12.2 85 85 N N/A 29.91 1013 10 16 N/A
2:15 am 02:15 Clear 57 13.8 54 12.4 91 91 N N/A 29.94 1014 10 16 N/A
2:35 am 02:35 Clear 60 15.3 53 11.8 80 80 NW 5 7 29.91 1013 10 16 N/A
2:55 am 02:55 Clear 60 15.7 53 11.6 77 77 NNW 3 6 29.91 1013 10 16 N/A
3:15 am 03:15 Clear 61 15.9 53 11.5 75 75 NW 3 6 29.91 1013 10 16 N/A
3:35 am 03:35 Clear 61 15.9 53 11.4 75 75 NW 3 6 29.94 1014 10 16 N/A
3:55 am 03:55 Clear 59 14.8 53 11.5 81 81 N N/A 29.97 1015 10 16 N/A
4:15 am 04:15 Clear 57 14.1 54 12.2 88 88 NW 3 6 29.97 1015 10 16 N/A
4:35 am 04:35 Clear 58 14.4 53 11.5 83 83 N N/A 29.97 1015 10 16 N/A
4:55 am 04:55 Clear 58 14.2 52 11.3 83 83 N N/A 29.97 1015 10 16 N/A
5:15 am 05:15 Clear 55 12.6 53 11.8 95 95 WNW 3 6 29.97 1015 10 16 N/A
5:35 am 05:35 Clear 54 12.3 53 11.4 94 94 N N/A 29.97 1015 10 16 N/A
5:55 am 05:55 Clear 55 12.6 53 11.8 95 95 N N/A 29.97 1015 10 16 N/A
6:15 am 06:15 Sunny 53 11.7 52 10.9 95 95 W 3 6 29.97 1015 10 16 N/A
6:35 am 06:35 Sunny 54 12.2 52 10.9 92 92 N N/A 29.97 1015 10 16 N/A
6:55 am 06:55 Sunny 55 12.7 52 11.2 91 91 N N/A 29.97 1015 10 16 N/A
7:15 am 07:15 Sunny 57 14.1 54 12.4 90 90 N N/A 29.97 1015 10 16 N/A
7:35 am 07:35 Sunny 60 15.4 55 12.5 83 83 W 5 7 29.94 1014 10 16 N/A
7:55 am 07:55 Sunny 61 16.2 54 12.4 78 78 W 7 11 29.97 1015 10 16 N/A
8:15 am 08:15 Sunny 63 17 55 12.5 75 75 W 6 9 29.97 1015 10 16 N/A
8:35 am 08:35 Sunny 64 17.6 53 11.5 68 68 WNW 6 9 29.97 1015 10 16 N/A
8:55 am 08:55 Sunny 65 18.2 53 11.9 67 67 W 10 17 29.97 1015 10 16 N/A
9:15 am 09:15 Sunny 65 18.4 52 11.1 63 63 NW 7 11 29.97 1015 10 16 N/A
9:35 am 09:35 Sunny 65 18.6 52 11.2 62 62 WNW 9 15 29.97 1015 10 16 N/A
9:55 am 09:55 Partly Cloudy 66 19 52 11.2 61 61 WNW 13 20 29.97 1015 10 16 N/A
10:15 am 10:15 Sunny 67 19.3 52 11 59 59 W 9 15 29.97 1015 10 16 N/A
10:35 am 10:35 Partly Cloudy 68 19.9 53 11.6 59 59 W 10 17 29.97 1015 10 16 N/A
10:55 am 10:55 Sunny 68 19.9 53 11.5 59 59 WNW 7 11 29.97 1015 10 16 N/A
11:15 am 11:15 Sunny 69 20.7 53 11.9 57 57 WNW 9 15 29.97 1015 10 16 N/A
11:35 am 11:35 Sunny 70 21.1 53 11.7 55 55 WNW 12 19 29.97 1015 10 16 N/A
11:55 am 11:55 Sunny 70 21.3 52 11 52 52 W 15 24 29.97 1015 10 16 N/A
12:15 pm 12:15 Sunny 71 21.7 52 11.2 51 51 NNW 12 19 29.94 1014 10 16 N/A
12:35 pm 12:35 Sunny 71 21.8 51 10.8 50 50 NW 12 19 29.94 1014 10 16 N/A
12:55 pm 12:55 Sunny 72 22.1 52 11 49 49 NW 9 15 29.94 1014 10 16 N/A
1:15 pm 13:15 Sunny 73 22.5 52 11.1 49 49 NNW 10 17 29.94 1014 10 16 N/A
1:35 pm 13:35 Sunny 73 22.6 52 10.9 48 48 NW 12 19 29.94 1014 10 16 N/A
1:55 pm 13:55 Sunny 73 22.7 50 10.2 45 45 W 9 15 29.94 1014 10 16 N/A
2:15 pm 14:15 Sunny 73 22.9 51 10.4 45 45 WNW 14 22 29.94 1014 10 16 N/A
2:35 pm 14:35 Sunny 74 23.5 52 11 45 45 W 13 20 29.94 1014 10 16 N/A
2:55 pm 14:55 Sunny 74 23.6 51 10.5 44 44 WNW 12 19 29.94 1014 10 16 N/A
3:15 pm 15:15 Sunny 75 23.7 49 9.7 41 41 WNW 13 20 29.94 1014 10 16 N/A
3:35 pm 15:35 Sunny 75 24.1 48 9.1 39 39 NW 13 20 29.94 1014 10 16 N/A
3:55 pm 15:55 Sunny 75 24.1 49 9.6 40 40 W 12 19 29.91 1013 10 16 N/A
4:15 pm 16:15 Sunny 76 24.2 49 9.3 39 39 WNW 13 20 29.91 1013 10 16 N/A
4:35 pm 16:35 Sunny 75 24 48 8.8 38 38 W 10 17 29.91 1013 10 16 N/A
4:55 pm 16:55 Sunny 76 24.2 48 9 38 38 WNW 13 20 29.91 1013 10 16 N/A
5:15 pm 17:15 Sunny 76 24.2 47 8.5 37 37 WNW 8 13 29.91 1013 10 16 N/A
5:35 pm 17:35 Sunny 76 24.2 48 8.7 37 37 NW 10 17 29.91 1013 10 16 N/A
5:55 pm 17:55 Sunny 76 24.2 47 8.5 37 37 NW 12 19 29.91 1013 10 16 N/A
6:15 pm 18:15 Sunny 75 24.1 48 9 38 38 NW 8 13 29.91 1013 10 16 N/A
6:35 pm 18:35 Sunny 75 24.1 48 8.8 38 38 WNW 7 11 29.91 1013 10 16 N/A
6:55 pm 18:55 Sunny 75 23.9 47 8.5 38 38 NW 8 13 29.91 1013 10 16 N/A
7:15 pm 19:15 Sunny 74 23.6 46 8 37 37 WNW 9 15 29.91 1013 10 16 N/A
7:35 pm 19:35 Sunny 74 23.2 45 7.4 36 36 WNW 8 13 29.91 1013 10 16 N/A
7:55 pm 19:55 Sunny 73 22.7 45 7.2 37 37 NW 6 9 29.91 1013 7 11 N/A
8:15 pm 20:15 Sunny 72 22 46 7.5 39 39 NW 6 9 29.91 1013 10 16 N/A
8:35 pm 20:35 Sunny 70 21.2 46 7.9 42 42 NW 5 7 29.91 1013 10 16 N/A
8:55 pm 20:55 Sunny 67 19.4 47 8.5 49 49 WNW 5 7 29.91 1013 10 16 N/A
9:15 pm 21:15 Clear 62 16.9 52 11.2 69 69 NW 3 6 29.91 1013 10 16 N/A
9:35 pm 21:35 Clear 64 17.6 48 8.8 57 57 NW 3 6 29.91 1013 10 16 N/A
9:55 pm 21:55 Clear 60 15.3 52 11.3 77 77 NNW 5 7 29.91 1013 10 16 N/A
10:15 pm 22:15 Clear 58 14.5 50 10.2 76 76 NW 3 6 29.94 1014 10 16 N/A
10:35 pm 22:35 Clear 57 13.8 51 10.7 82 82 N 3 6 29.94 1014 10 16 N/A
10:55 pm 22:55 Clear 58 14.3 50 9.8 75 75 N N/A 29.97 1015 10 16 N/A
11:10 pm 23:10 Clear 59 14.8 49 9.3 70 70 N N/A 29.91 1013 10 16 N/A
11:35 pm 23:35 Clear 56 13.5 51 10.7 83 83 N N/A 29.94 1014 10 16 N/A
11:55 pm 23:55 Clear 55 12.9 52 11.1 89 89 N N/A 29.94 1014 10 16 N/A

Powered by AerisWeather